This is the latest recevied weather packets stored in our database for station/object W5DRO-13. If no packets are shown the sender has not sent any weather packets the latest 10 day(s).
| Time | Temp. | Humidity | Pressure | Rain* | Wind** | Luminosity | Snow |
|---|---|---|---|---|---|---|---|
| 1777749685 | 23.89° C | 39% | 1021.6 hPa | 0 mm | - | - | - |
| 1777749382 | 23.89° C | 40% | 1021.7 hPa | 0 mm | - | - | - |
| 1777749079 | 23.33° C | 39% | 1021.9 hPa | 0 mm | - | - | - |
| 1777748777 | 22.78° C | 41% | 1021.9 hPa | 0 mm | - | - | - |
| 1777748475 | 23.33° C | 40% | 1021.8 hPa | 0 mm | - | - | - |
| 1777748169 | 23.89° C | 40% | 1021.8 hPa | 0 mm | - | - | - |
| 1777747866 | 22.78° C | 41% | 1021.8 hPa | 0 mm | - | - | - |
| 1777747562 | 22.78° C | 42% | 1022 hPa | 0 mm | - | - | - |
| 1777747257 | 22.22° C | 41% | 1021.9 hPa | 0 mm | - | - | - |
| 1777746954 | 22.22° C | 41% | 1022.3 hPa | 0 mm | - | - | - |
| 1777746650 | 22.78° C | 44% | 1022 hPa | 0 mm | - | - | - |
| 1777746346 | 22.78° C | 41% | 1022.1 hPa | 0 mm | - | - | - |
| 1777746042 | 22.78° C | 40% | 1022.2 hPa | 0 mm | - | - | - |
| 1777745740 | 22.22° C | 44% | 1022.3 hPa | 0 mm | - | - | - |
| 1777745438 | 22.22° C | 43% | 1022.3 hPa | 0 mm | - | - | - |
| 1777745135 | 22.78° C | 42% | 1022.3 hPa | 0 mm | - | - | - |
| 1777744832 | 23.33° C | 41% | 1022.6 hPa | 0 mm | - | - | - |
| 1777744532 | 22.78° C | 42% | 1022.5 hPa | 0 mm | - | - | - |
| 1777744228 | 22.22° C | 42% | 1022.5 hPa | 0 mm | - | - | - |
| 1777743925 | 21.67° C | 42% | 1022.7 hPa | 0 mm | - | - | - |
| 1777743621 | 20° C | 47% | 1022.7 hPa | 0 mm | - | - | - |
| 1777743319 | 20.56° C | 47% | 1022.8 hPa | 0 mm | - | - | - |
| 1777743017 | 20° C | 45% | 1022.8 hPa | 0 mm | - | - | - |
| 1777742714 | 21.67° C | 44% | 1022.6 hPa | 0 mm | - | - | - |
| 1777742410 | 21.67° C | 44% | 1022.8 hPa | 0 mm | - | - | - |
* Rain latest hour (hover to see other rain measurements)
** Current wind speed in m/s (hover to see current wind gust speed)